This is the latest recevied weather packets stored in our database for station/object W8CEN. If no packets are shown the sender has not sent any weather packets the latest 10 day(s).
| Time | Temp. | Humidity | Pressure | Rain* | Wind** | Luminosity | Snow |
|---|---|---|---|---|---|---|---|
| 1777465994 | 11.67° C | 87% | 989.7 hPa | 0 mm | - | 163 W/m² | - |
| 1777465690 | 11.67° C | 88% | 989.6 hPa | 0 mm | - | 131 W/m² | - |
| 1777465386 | 11.67° C | 87% | 989.8 hPa | 0 mm | - | 116 W/m² | - |
| 1777465084 | 11.67° C | 89% | 989.7 hPa | 0 mm | - | 115 W/m² | - |
| 1777464781 | 11.67° C | 89% | 989.6 hPa | 0 mm | - | 58 W/m² | - |
| 1777464476 | 11.67° C | 89% | 989.9 hPa | 0 mm | - | 56 W/m² | - |
| 1777464172 | 11.67° C | 89% | 989.7 hPa | 0 mm | - | 74 W/m² | - |
| 1777463872 | 11.67° C | 89% | 989.5 hPa | 0 mm | - | 61 W/m² | - |
| 1777463568 | 11.67° C | 90% | 989.6 hPa | 0 mm | - | 56 W/m² | - |
| 1777463263 | 11.67° C | 90% | 989.3 hPa | 0 mm | - | 50 W/m² | - |
| 1777462960 | 11.67° C | 90% | 989.6 hPa | 0 mm | - | 56 W/m² | - |
| 1777462655 | 11.67° C | 89% | 989.6 hPa | 1.78 mm | - | 25 W/m² | - |
| 1777462350 | 11.67° C | 89% | 989.5 hPa | 1.78 mm | - | 14 W/m² | - |
| 1777462047 | 11.67° C | 88% | 989.8 hPa | 0 mm | - | 16 W/m² | - |
| 1777461745 | 11.67° C | 88% | 990.1 hPa | 0 mm | - | 14 W/m² | - |
| 1777461439 | 11.67° C | 88% | 990.1 hPa | 0 mm | - | 15 W/m² | - |
| 1777461136 | 11.67° C | 87% | 990.3 hPa | 0 mm | - | 12 W/m² | - |
| 1777460831 | 11.67° C | 86% | 990.7 hPa | 0 mm | - | 8 W/m² | - |
| 1777460527 | 11.67° C | 86% | 990.6 hPa | 0 mm | - | 6 W/m² | - |
| 1777460223 | 11.67° C | 85% | 990.6 hPa | 0 mm | - | 4 W/m² | - |
| 1777459920 | 11.67° C | 85% | 990.9 hPa | 0 mm | - | 2 W/m² | - |
| 1777459617 | 11.67° C | 85% | 990.5 hPa | 0 mm | - | 2 W/m² | - |
| 1777459314 | 11.67° C | 85% | 990.2 hPa | 0 mm | - | 2 W/m² | - |
| 1777459012 | 11.67° C | 85% | 989.9 hPa | 0 mm | - | 1 W/m² | - |
| 1777458709 | 11.67° C | 85% | 990.1 hPa | 0 mm | - | 1 W/m² | - |
* Rain latest hour (hover to see other rain measurements)
** Current wind speed in m/s (hover to see current wind gust speed)